Location: St. Louis
(38.6270°N, 90.1994°W)
Time: 21:44:01
(UTC-05:00)

COSMOS 1275 DEB - Visible Passes

Search period start: 30 June 2022 00:00
Search period end: 10 July 2022 00:00
Orbit: 792 x 807 km, 82.9° (Epoch: 15 June)

Date Brightness Start Highest point End Pass type
(mag) Time Alt. Az. Time Alt. Az. Time Alt. Az.
02 Jul ? 21:37:11 10° NW 21:39:29 13° W 21:41:48 10° WSW visible
03 Jul ? 21:08:40 10° NW 21:12:32 20° W 21:16:22 10° SW visible
07 Jul ? 21:02:42 10° WNW 21:04:52 12° W 21:07:01 10° WSW visible
